Hourly Weather Roundup
Issued by NWS Central Illinois

Home | Current Version | Previous Version | Text Only | Print | Product List | Glossary On
Versions: 1 2 3 4 5 6 7 8 9 10 11 12 13 14 15 16 17 18 19 20 21 22 23 24 25 26 27 28 29 30 31 32 33 34 35 36 37 38 39 40 41 42 43 44 45 46 47 48 49 50
000
NZUS43 KILX 200910
HWRILX

Area Weather Roundup
National Weather Service Lincoln IL
400 AM CDT SUN MAY 20 2018

NOTE:  "FAIR" indicates few or no clouds below 12,000 feet, with
       no sigificant weather and/or obstructions to visibility.


CITY           SKY/WX    TMP DP  RH WIND       PRES   REMARKS
Bloomington    FAIR      61  57  87 S7        30.00R
Champaign      FAIR      63  60  90 SW3       29.99R
Danville       FAIR      63  63  98 E7        29.98R FOG
Decatur        FAIR      64  61  90 CALM      29.99R
Effingham      FAIR      62  62 100 CALM      30.01R
Flora          FAIR      62  60  93 CALM      29.99R
Galesburg      CLOUDY    64  61  91 CALM      30.00R
Jacksonville   CLEAR     63  59  88 CALM      29.98R
Lacon          MOCLDY    64  61  90 CALM      30.00R
Lawrenceville  FAIR      66  64  93 N5        30.00R
Litchfield     CLOUDY    62  61  97 CALM      29.99R
$$


CITY           SKY/WX    TMP DP  RH WIND       PRES   REMARKS
Lincoln        NOT AVBL
Macomb         CLEAR     65  61  86 SW9       30.00R
Mattoon        FAIR      62  60  93 CALM      29.98S
Mt Carmel AP   FAIR      64  62  93 CALM      30.00R
Olney-Noble AP FAIR      63  61  93 CALM      30.01R
Paris AP       FAIR      62  61  98 CALM      30.00F
Peoria         FAIR      65  62  90 CALM      29.98R
Pontiac        MOCLDY    63  63  98 E12       30.00R FOG
Rantoul        FAIR      65  64  96 E9        29.99R FOG
Robinson       FAIR      62  61  98 CALM      30.01R
Springfield    FAIR      67  63  87 CALM      29.98S
Taylorville    FAIR      63  62  96 SW5       29.99R
$$

...REGIONAL REPORTS...


CITY           SKY/WX    TMP DP  RH WIND       PRES   REMARKS
Chicago O`Hare CLOUDY    48  40  73 NE20      30.08F
Kankakee       CLOUDY    57  55  95 NE16      30.02F
La Salle       FAIR      65  61  87 E16G24    30.00R
Moline         MOCLDY    67  63  87 E8        29.98R
Mount Sterling CLEAR     64  59  83 W9        29.98R
Mount Vernon   NOT AVBL
Pittsfield     CLEAR     66  59  78 W5        30.00R
Quincy         CLEAR     63  59  87 SW6       29.99R
Rockford       CLOUDY    50  46  86 NE12      30.09R
$$


CITY           SKY/WX    TMP DP  RH WIND       PRES   REMARKS
Burlington     PTCLDY    65  63  93 VRB3      29.97R
Cedar Rapids   MOCLDY    65  63  93 NW10      29.98R
Des Moines     CLOUDY    60  54  80 N12       30.01R
Kirksville     CLOUDY    64  63  96 S8        30.00
Ottumwa        CLEAR     60  59  96 NW8       29.96S FOG
St Louis       PTCLDY    64  62  93 CALM      30.00R
$$


CITY           SKY/WX    TMP DP  RH WIND       PRES   REMARKS
Terre Haute    FAIR      63  63 100 W5        30.01R FOG
Evansville     FAIR      67  63  87 CALM      30.00R
Indianapolis   FAIR      66  63  90 NE10      30.01R
Lafayette      FAIR      61  60  97 NE8       30.00S FOG
Madison        CLOUDY    51  49  92 E9        30.09R
Milwaukee      CLOUDY    45  40  82 N15G23    30.13R
$$






USA.gov is the U.S. government's official web portal to all federal, state and local government web resources and services.